RH
36 42 38 35 33 24 23 23 26 30 33 38 37 35 34 38 38 32 32 33 29 27 31 35 36 36 31 32 33 32 30 33 30 25 33 42 52 72 76 82 88 90 90 86
42 35 35 36 31 24 20 23 25 28 30 37 34 33 34 40 38 34 30 28 29 29 34 33 36 31 26 30 32 35 39 35 28 22 34 42 54 70 76 88 91 89 86 87
33 36 35 34 26 24 20 22 25 31 30 35 33 31 34 35 32 32 29 29 29 31 35 38 36 27 29 35 41 43 39 30 25 24 35 41 55 74 86 88 90 89 83 85
20 26 34 29 22 19 20 17 23 34 34 35 37 37 34 31 28 27 23 25 26 32 38 35 33 26 33 42 44 36 33 24 22 29 35 44 59 78 86 86 88 86 86 85
18 17 21 22 19 15 17 14 24 28 31 36 31 36 28 29 23 20 23 25 27 29 33 32 24 31 41 43 38 33 29 21 22 30 39 48 56 75 73 78 75 85 88 85
14 14 15 15 15 15 13 19 33 33 36 42 34 41 26 29 23 19 22 26 24 27 25 22 30 38 42 42 34 30 24 20 24 35 44 50 57 69 69 70 81 79 85 90
18 16 15 14 15 13 24 33 42 46 46 37 37 41 31 29 25 25 25 28 30 25 21 26 34 40 42 40 29 26 19 20 27 43 47 46 53 62 58 71 79 78 77 83
20 19 15 13 14 12 22 26 32 41 42 36 39 35 32 33 27 27 27 29 33 27 24 29 36 41 44 33 23 19 19 28 35 45 44 45 50 54 63 74 77 74 74 67
19 18 14 13 12 13 18 24 23 34 42 38 33 30 31 29 27 28 32 32 35 25 27 30 37 38 29 22 18 18 24 30 41 39 37 43 52 59 78 81 70 68 66 58
20 22 15 15 12 12 14 23 34 43 45 40 33 32 32 26 32 32 32 34 32 32 31 30 32 28 21 18 18 18 26 30 37 40 42 49 51 67 79 68 67 72 60 62
20 22 23 18 15 11 16 27 33 36 39 41 40 27 27 31 33 34 33 33 35 32 31 31 27 21 19 18 19 22 28 32 38 40 48 52 56 67 77 81 72 81 69 60
21 24 26 18 17 13 17 22 27 30 35 34 35 25 23 30 31 33 32 37 37 31 30 30 21 18 18 18 19 24 28 31 34 37 45 52 62 63 70 73 73 75 69 66
32 27 31 30 22 21 22 23 28 28 35 35 33 24 23 28 29 33 34 38 35 32 28 30 23 17 16 18 18 23 24 28 28 34 46 54 54 59 63 73 68 74 71 64
44 30 24 23 20 20 21 25 26 28 35 34 28 24 29 32 33 35 38 35 33 35 31 30 24 15 16 17 17 21 24 28 23 26 46 53 51 60 63 78 67 68 73 69
46 33 24 18 20 24 23 21 24 25 24 27 24 25 31 35 33 37 37 34 33 35 36 30 25 13 16 16 16 20 21 25 23 21 45 50 48 61 62 78 67 63 80 77
49 45 27 23 20 26 27 28 26 26 28 27 24 24 28 32 35 37 36 33 30 33 33 32 26 14 14 15 14 18 20 22 22 20 37 45 46 57 56 76 79 70 71 79
55 53 44 28 23 29 33 30 29 28 28 27 25 18 25 31 33 35 36 33 31 32 33 29 26 13 13 14 14 15 18 21 22 20 23 32 51 53 50 55 74 80 75 79
54 52 49 32 29 44 29 28 27 26 23 25 25 20 20 21 27 35 37 35 32 32 31 30 23 15 14 12 14 15 17 20 22 20 18 25 40 44 43 40 49 60 74 77
55 57 58 47 33 31 33 33 33 31 30 28 25 23 21 22 28 35 34 32 30 29 27 29 24 18 15 15 13 14 16 18 20 20 16 17 28 43 40 33 32 36 41 47
61 59 65 58 44 43 34 39 30 31 36 32 28 26 21 24 32 30 32 32 31 27 27 28 28 23 20 21 17 14 14 16 17 19 17 18 16 33 41 39 34 31 29 29
89 79 68 68 60 46 47 51 38 38 39 36 32 27 23 23 20 27 31 31 30 30 26 30 31 24 21 24 21 17 14 14 15 17 17 19 17 17 27 37 38 35 32 27
98 93 83 80 62 63 54 51 56 61 52 41 36 29 23 23 26 24 29 30 32 29 29 31 31 29 27 20 19 17 15 12 15 16 15 19 20 18 21 21 29 33 31 27
98 98 91 88 86 71 70 62 59 58 51 48 44 35 24 24 26 27 25 28 32 28 31 31 29 31 31 26 21 18 15 13 14 15 13 18 20 19 20 21 23 23 24 23
96 96 92 83 87 75 70 58 58 57 52 44 41 33 27 22 23 25 25 25 31 29 30 30 31 32 33 31 29 24 17 15 14 15 13 16 19 19 19 19 20 21 20 18
95 95 93 86 82 75 67 61 58 58 54 45 41 41 35 33 25 25 24 24 28 28 30 31 30 32 33 33 32 32 26 20 18 16 13 14 16 17 17 17 16 16 17 16
87 91 93 94 79 76 68 61 59 59 50 44 41 42 38 33 31 27 26 26 29 31 31 31 29 31 33 32 32 34 30 24 23 21 16 14 14 14 15 16 16 16 17 16